Wind_Speed
16 18 21 24 28 31 34 36 37 38 38 38 38 39 39 40 40 39 38 37 37 38 38 38 38 37 37 37 37 37 37 37 38 39 40 40 40 41 42 42 43 43 43 43
13 15 17 20 22 26 30 32 34 36 36 37 37 37 38 39 39 38 39 38 38 38 38 38 37 37 37 37 37 37 37 38 38 38 39 41 41 42 42 43 44 44 45 45
12 13 14 16 19 21 25 28 31 32 34 35 36 36 36 36 37 37 38 38 38 38 38 38 38 38 38 37 38 38 39 39 39 40 41 42 43 43 44 45 46 47 47 48
10 10 12 14 15 17 20 23 25 27 29 31 33 34 34 34 36 37 37 37 37 37 37 37 37 38 38 39 39 39 39 39 40 41 42 43 44 46 47 48 49 49 49 50
8 8 9 10 12 14 16 18 20 22 24 26 28 31 33 33 33 34 35 35 35 36 37 38 37 38 39 39 39 39 40 40 41 42 43 44 45 47 49 50 50 50 50 51
7 8 9 9 11 13 14 16 17 19 21 23 24 26 28 29 30 31 32 33 33 34 35 36 37 38 39 39 39 40 41 42 43 43 44 46 46 47 48 49 50 51 51 52
6 8 9 9 10 12 13 14 15 17 19 22 22 23 25 26 27 29 30 31 32 32 32 34 36 37 38 39 40 41 41 42 44 45 45 46 47 47 47 47 49 50 51 53
5 7 8 10 11 11 12 13 14 16 17 19 20 21 22 24 25 27 28 29 30 32 33 34 35 36 38 39 40 42 42 42 43 44 45 45 45 46 47 48 49 50 51 53
7 7 7 8 8 9 9 11 12 14 16 18 19 19 21 22 23 25 27 27 29 31 33 34 34 35 37 39 40 41 42 42 42 44 45 46 46 48 49 50 51 51 52 53
8 8 7 7 8 8 9 10 11 12 14 16 17 18 19 20 21 23 25 26 27 29 30 32 33 34 36 37 38 38 39 40 41 42 43 45 46 48 48 49 50 51 53 53
8 8 7 7 8 9 9 10 11 13 14 14 16 16 18 19 20 21 22 23 25 27 28 30 31 33 33 35 36 37 38 40 41 41 42 44 45 47 48 48 49 51 52 52
9 9 8 8 8 8 9 10 11 13 14 14 15 16 17 18 18 19 20 22 23 24 26 28 29 31 32 33 35 36 37 39 41 42 43 44 44 45 46 47 49 50 51 52
10 10 10 9 9 8 8 9 10 12 14 15 16 16 17 17 18 18 20 21 21 22 23 25 27 29 31 33 34 35 37 38 39 41 42 43 43 44 44 45 47 48 49 51
10 11 11 10 10 10 10 10 11 13 15 16 17 17 18 19 19 19 20 20 21 22 23 24 25 27 29 31 32 34 35 36 38 39 40 41 42 42 44 45 46 48 49 51
11 11 11 10 11 11 11 12 12 13 15 16 16 17 18 19 21 22 22 22 23 24 25 26 27 29 30 31 32 34 35 37 38 39 40 41 42 44 45 46 47 48 50 51
12 12 12 11 12 12 12 13 14 14 15 16 17 17 18 20 21 22 23 24 25 25 26 27 28 29 30 32 33 34 36 37 38 39 40 41 42 43 45 47 48 49 50 52
14 14 13 13 14 14 14 15 16 16 17 17 19 19 19 20 21 22 23 24 25 26 28 28 29 30 32 33 34 35 36 38 39 40 41 42 43 44 46 48 49 50 51 52
15 15 16 15 16 16 16 16 17 19 19 20 21 21 22 22 23 24 25 26 27 28 29 30 31 31 32 33 34 35 36 38 39 40 42 43 44 46 47 48 49 51 52 53
16 17 18 19 19 19 18 18 19 21 21 22 23 23 24 25 25 25 26 27 29 30 31 32 33 33 34 34 35 37 37 38 39 40 42 43 45 46 47 49 50 52 53 54
19 19 20 21 22 21 20 21 22 23 23 24 25 25 26 27 27 27 28 28 30 31 32 33 34 35 36 36 37 38 39 39 40 41 43 44 45 47 48 49 51 52 53 54
21 21 22 23 24 24 24 24 25 25 26 27 27 27 28 28 29 30 30 31 32 33 33 34 35 36 38 38 39 40 40 41 41 42 44 45 46 47 48 49 50 52 53 54
24 24 24 25 25 25 26 26 27 28 29 29 29 30 30 30 31 31 32 33 34 34 35 36 37 38 39 40 41 41 41 42 42 43 44 46 47 47 48 49 50 51 53 53
26 26 26 26 25 26 27 28 28 29 29 30 30 31 31 31 32 33 34 35 35 35 36 37 38 39 40 41 41 41 42 43 44 45 46 47 47 48 48 50 51 52 52 53
27 28 28 28 27 28 29 29 29 30 31 31 31 31 32 32 33 33 34 34 35 35 36 36 37 38 40 41 42 42 43 44 45 46 47 47 47 47 49 50 51 52 52 52
28 29 30 29 29 30 30 31 31 32 32 32 32 32 32 32 32 33 33 34 34 35 36 37 38 39 40 41 42 43 44 45 45 46 46 47 47 48 49 50 51 52 52 52
30 31 31 31 31 32 32 32 33 34 34 34 34 33 33 34 34 34 34 35 36 37 38 38 39 40 41 42 43 44 45 46 46 46 46 46 47 49 50 50 51 51 51 51
Wind_Direction
249 245 244 243 240 237 235 235 235 236 237 239 241 241 241 241 243 243 244 246 247 249 251 252 253 254 255 256 257 259 260 260 262 262 262 263 264 265 265 266 267 268 269 270
249 247 244 243 239 237 237 237 238 238 238 239 241 242 243 243 244 244 245 246 248 249 251 253 254 255 256 258 259 259 260 261 262 263 264 264 264 265 266 267 268 269 269 270
257 251 243 242 240 238 238 239 238 239 239 240 241 242 243 245 246 246 246 247 248 250 252 255 255 256 258 260 261 262 263 264 265 265 266 266 265 266 267 269 270 271 271 271
258 249 243 243 242 239 240 238 239 241 243 244 243 245 244 244 246 248 249 250 251 252 254 256 257 259 260 261 263 264 265 265 267 268 269 269 269 268 269 271 272 273 274 274
258 250 251 250 248 247 244 240 240 244 245 246 247 248 246 246 247 249 250 251 252 254 255 256 257 259 261 262 263 263 265 266 268 270 272 272 272 272 272 272 272 273 274 275
263 262 263 259 256 255 250 244 244 246 246 247 248 251 248 247 249 250 252 253 253 254 255 257 258 260 261 262 263 264 265 266 268 270 272 272 273 274 274 274 274 274 274 276
272 268 268 264 263 260 255 249 248 249 248 250 250 253 253 253 252 253 255 256 256 256 257 259 260 261 263 264 263 265 267 268 268 270 272 273 273 274 275 276 276 276 276 277
313 285 276 270 269 270 261 255 256 257 254 255 257 260 260 260 258 257 258 260 260 259 262 263 263 263 264 265 265 266 268 270 271 272 273 274 275 277 278 278 278 279 279 279
333 315 296 284 278 272 263 257 260 262 261 264 267 268 268 267 265 261 260 262 263 264 264 265 266 265 265 266 267 269 270 272 273 274 275 276 277 279 280 281 280 280 281 280
335 329 312 296 286 284 278 267 262 260 265 269 271 272 274 273 271 268 266 266 267 267 267 268 268 268 268 269 270 272 273 274 275 277 277 278 280 282 283 284 282 281 282 282
343 339 328 313 303 299 284 270 262 259 264 272 274 275 275 277 275 272 271 271 271 272 273 273 272 272 273 274 274 275 276 276 277 278 279 279 281 281 282 283 283 283 283 284
344 342 334 328 318 307 295 284 271 265 266 272 276 280 281 281 280 278 277 277 277 278 278 277 277 277 277 277 279 279 279 280 280 280 280 283 283 283 284 283 283 284 283 283
350 347 342 336 328 317 306 291 281 269 267 271 277 281 283 284 286 287 286 283 283 283 283 282 281 280 280 280 281 282 282 282 283 283 284 284 285 286 285 286 286 286 286 286
342 345 343 336 328 322 315 303 290 280 278 278 280 282 282 284 286 287 286 286 284 284 285 286 286 284 284 284 285 285 285 286 285 286 287 287 287 287 287 288 288 288 288 288
330 333 337 336 329 324 320 311 302 294 288 284 285 283 283 284 284 284 284 285 286 286 286 287 288 287 286 287 288 288 287 287 287 288 289 289 289 289 290 290 291 291 291 291
321 322 323 324 324 319 315 311 308 303 296 291 290 288 289 289 287 286 286 286 288 289 290 290 291 292 291 289 289 289 290 290 289 289 289 289 290 290 291 292 293 293 293 293
313 311 312 312 314 314 311 307 303 301 298 296 294 294 293 293 291 290 290 289 290 291 292 293 294 295 295 294 292 292 292 292 291 291 291 291 291 292 293 293 295 296 297 297
310 305 305 306 308 309 311 305 301 297 294 293 293 292 292 292 292 291 291 292 292 292 292 293 294 295 296 297 297 296 296 296 295 294 293 294 294 295 296 296 297 298 299 299
305 304 303 304 305 305 306 303 301 297 295 293 292 291 291 292 293 294 293 292 292 292 292 293 293 295 297 298 299 298 299 299 298 298 297 298 298 298 299 299 300 300 300 301
297 299 301 302 303 303 301 300 300 299 296 296 295 294 293 293 293 294 294 294 293 293 293 293 295 296 297 298 299 300 300 300 299 298 299 300 300 300 300 301 301 302 303 302
293 294 295 298 300 302 299 298 298 298 299 298 297 296 294 294 294 294 294 295 295 296 296 297 297 297 298 299 299 299 300 300 300 300 300 300 301 302 302 303 303 304 305 305
291 292 294 295 297 300 298 296 295 295 296 296 295 295 294 293 293 294 294 295 296 296 296 297 297 298 298 299 298 299 299 299 300 301 301 302 303 303 304 304 305 306 307 308
289 291 292 294 297 298 297 297 296 294 294 294 293 294 294 293 294 294 294 294 295 296 296 297 297 298 298 298 298 298 298 299 299 301 302 303 303 304 304 305 306 307 308 308
288 289 291 292 294 294 296 297 295 293 294 294 294 294 294 295 294 294 294 295 295 296 296 297 297 298 298 298 298 298 299 300 300 301 302 302 303 304 305 307 308 308 309 309
288 288 291 293 294 292 292 293 293 294 295 296 296 297 297 297 298 297 296 296 297 297 297 298 299 300 300 299 299 300 300 301 302 302 302 303 304 305 306 307 308 308 309 309
287 288 290 292 291 291 291 290 291 292 294 294 294 295 296 296 297 297 298 298 298 298 298 299 299 300 300 300 300 300 301 301 301 301 302 302 304 305 306 307 308 309 309 309
Height
5708 5710 5710 5712 5715 5718 5721 5725 5729 5732 5735 5739 5741 5745 5748 5751 5754 5756 5759 5761 5763 5765 5767 5768 5770 5771 5772 5773 5774 5775 5775 5775 5775 5776 5776 5776 5776 5776 5775 5775 5775 5774 5773 5773
5705 5705 5705 5707 5709 5711 5714 5718 5721 5725 5728 5731 5733 5736 5739 5742 5745 5748 5750 5753 5755 5757 5758 5760 5761 5762 5764 5765 5766 5766 5767 5767 5766 5766 5767 5767 5767 5766 5765 5765 5764 5764 5763 5762
5700 5701 5701 5702 5704 5706 5708 5712 5715 5718 5720 5722 5726 5729 5732 5734 5737 5739 5742 5744 5747 5749 5750 5751 5753 5754 5755 5757 5757 5758 5758 5758 5757 5757 5757 5757 5757 5756 5756 5755 5754 5753 5752 5751
5697 5698 5699 5699 5700 5702 5704 5706 5709 5711 5714 5716 5720 5721 5725 5727 5729 5731 5734 5737 5739 5741 5742 5743 5744 5746 5747 5748 5748 5749 5749 5749 5748 5748 5748 5747 5746 5746 5745 5744 5743 5742 5740 5739
5696 5696 5697 5697 5698 5699 5700 5702 5704 5706 5709 5711 5712 5714 5718 5720 5722 5724 5727 5729 5731 5733 5734 5735 5736 5737 5738 5739 5740 5740 5739 5739 5739 5738 5737 5737 5735 5734 5733 5732 5731 5730 5728 5727
5695 5695 5695 5695 5696 5696 5697 5699 5700 5702 5703 5706 5708 5709 5711 5714 5716 5718 5720 5722 5723 5725 5726 5728 5729 5729 5730 5730 5730 5730 5730 5729 5728 5728 5727 5726 5725 5723 5722 5721 5720 5718 5717 5715
5693 5693 5693 5693 5694 5694 5694 5696 5698 5698 5699 5701 5704 5704 5707 5708 5710 5712 5713 5714 5716 5717 5719 5720 5720 5721 5721 5721 5721 5721 5720 5719 5718 5717 5716 5715 5714 5712 5710 5709 5707 5706 5704 5703
5692 5692 5692 5691 5692 5692 5692 5693 5695 5696 5697 5699 5699 5700 5703 5704 5704 5705 5706 5707 5708 5710 5710 5711 5711 5712 5712 5712 5711 5711 5710 5709 5707 5706 5705 5704 5702 5701 5699 5697 5695 5693 5691 5689
5691 5691 5690 5690 5690 5690 5689 5690 5692 5693 5694 5695 5696 5697 5699 5698 5699 5699 5700 5701 5701 5702 5702 5703 5703 5703 5703 5702 5702 5701 5700 5699 5698 5696 5695 5693 5692 5690 5688 5685 5683 5680 5678 5676
5691 5691 5690 5689 5689 5688 5688 5688 5689 5690 5690 5691 5692 5693 5694 5693 5693 5694 5694 5694 5694 5695 5695 5695 5695 5694 5694 5693 5692 5692 5691 5689 5688 5686 5684 5682 5680 5678 5675 5673 5670 5668 5665 5662
5691 5691 5690 5689 5688 5687 5688 5687 5687 5688 5688 5688 5688 5692 5689 5689 5688 5688 5688 5688 5688 5688 5687 5687 5687 5686 5685 5684 5683 5682 5681 5679 5677 5675 5673 5671 5669 5666 5664 5661 5658 5655 5652 5649
5691 5690 5689 5688 5687 5686 5686 5686 5685 5686 5686 5685 5685 5689 5685 5685 5684 5683 5683 5682 5682 5681 5681 5680 5679 5678 5677 5675 5674 5673 5671 5669 5667 5665 5662 5660 5657 5654 5651 5648 5645 5642 5639 5636
5691 5690 5688 5687 5688 5686 5685 5684 5683 5683 5682 5682 5682 5686 5682 5680 5679 5678 5678 5677 5676 5675 5674 5672 5671 5670 5668 5667 5665 5663 5661 5659 5657 5654 5652 5649 5646 5643 5640 5637 5634 5630 5627 5623
5690 5689 5688 5687 5685 5684 5683 5682 5681 5680 5679 5679 5680 5679 5678 5676 5675 5674 5673 5671 5670 5669 5667 5666 5664 5662 5660 5658 5656 5654 5652 5649 5646 5644 5641 5638 5635 5632 5629 5626 5622 5618 5614 5610
5689 5688 5686 5685 5684 5682 5681 5680 5678 5677 5676 5676 5676 5674 5673 5671 5670 5668 5667 5666 5664 5663 5661 5658 5656 5654 5652 5649 5647 5644 5642 5639 5637 5634 5631 5628 5624 5621 5618 5614 5610 5606 5601 5597
5687 5686 5685 5684 5682 5680 5679 5677 5675 5674 5673 5672 5670 5670 5668 5666 5664 5663 5661 5660 5658 5656 5654 5651 5649 5646 5644 5641 5638 5636 5633 5630 5626 5623 5620 5617 5613 5610 5606 5602 5598 5593 5588 5583
5685 5683 5682 5681 5679 5677 5676 5675 5672 5671 5669 5667 5665 5665 5663 5661 5659 5657 5655 5653 5651 5649 5647 5644 5642 5639 5636 5632 5629 5626 5623 5620 5616 5613 5609 5606 5602 5598 5594 5590 5585 5580 5575 5570
5682 5680 5678 5677 5676 5674 5675 5671 5669 5667 5665 5663 5661 5659 5657 5655 5653 5651 5649 5647 5645 5642 5640 5637 5634 5631 5628 5624 5620 5617 5613 5610 5606 5602 5598 5594 5590 5586 5582 5577 5572 5567 5561 5555
5678 5676 5674 5673 5671 5670 5669 5666 5663 5661 5660 5658 5655 5653 5651 5649 5647 5645 5642 5640 5637 5635 5632 5629 5626 5623 5619 5616 5612 5608 5604 5600 5596 5592 5587 5583 5579 5574 5569 5564 5559 5553 5547 5541
5673 5671 5670 5667 5665 5664 5665 5661 5657 5656 5654 5652 5649 5647 5645 5642 5641 5640 5635 5632 5629 5626 5623 5620 5617 5614 5610 5607 5602 5598 5594 5590 5585 5581 5576 5572 5567 5562 5556 5551 5545 5539 5533 5526
5668 5666 5664 5661 5659 5658 5657 5654 5651 5650 5649 5645 5642 5640 5637 5635 5633 5631 5627 5624 5621 5618 5615 5611 5608 5604 5601 5597 5592 5588 5584 5579 5574 5570 5565 5560 5554 5549 5543 5537 5531 5525 5519 5513
5661 5659 5658 5655 5653 5654 5650 5646 5645 5643 5640 5637 5634 5632 5629 5627 5624 5621 5618 5615 5612 5609 5606 5602 5599 5595 5591 5586 5582 5578 5573 5568 5564 5559 5553 5548 5542 5536 5530 5524 5518 5512 5505 5499
5654 5653 5651 5650 5649 5645 5642 5639 5637 5634 5631 5628 5626 5624 5621 5618 5616 5612 5609 5606 5603 5599 5596 5593 5589 5585 5580 5575 5571 5567 5562 5557 5552 5547 5541 5536 5530 5524 5518 5512 5505 5499 5492 5485
5647 5645 5643 5641 5641 5637 5634 5631 5628 5625 5622 5620 5617 5615 5612 5609 5606 5603 5600 5596 5593 5590 5586 5582 5578 5574 5570 5565 5560 5555 5550 5545 5540 5534 5529 5523 5517 5512 5505 5499 5492 5485 5479 5472
5639 5636 5634 5632 5631 5628 5626 5622 5619 5617 5614 5612 5609 5606 5603 5600 5597 5594 5591 5587 5584 5580 5576 5572 5568 5564 5559 5554 5548 5543 5538 5533 5527 5522 5516 5511 5505 5499 5493 5486 5479 5472 5465 5458
5630 5627 5624 5623 5621 5617 5616 5613 5611 5608 5605 5603 5600 5597 5594 5591 5588 5584 5581 5577 5573 5570 5566 5561 5557 5552 5547 5542 5537 5532 5526 5521 5515 5509 5504 5498 5492 5487 5480 5474 5467 5459 5453 5445